This is the latest recevied weather packets stored in our database for station/object KF4CQ. If no packets are shown the sender has not sent any weather packets the latest 10 day(s).
| Time | Temp. | Humidity | Pressure | Rain* | Wind** | Luminosity | Snow |
|---|---|---|---|---|---|---|---|
| 1778101521 | 33.33° C | 47% | 1016 hPa | 0 mm | - | 458 W/m² | - |
| 1778101218 | 33.89° C | 46% | 1015.9 hPa | 0 mm | - | 203 W/m² | - |
| 1778100915 | 33.89° C | 46% | 1016 hPa | 0 mm | - | 117 W/m² | - |
| 1778100610 | 33.89° C | 47% | 1015.9 hPa | 0 mm | - | 267 W/m² | - |
| 1778100308 | 33.89° C | 47% | 1015.9 hPa | 0 mm | - | 123 W/m² | - |
| 1778100005 | 33.89° C | 46% | 1015.9 hPa | 0 mm | - | 140 W/m² | - |
| 1778099703 | 33.89° C | 46% | 1015.8 hPa | 0 mm | - | 133 W/m² | - |
| 1778099399 | 34.44° C | 46% | 1015.9 hPa | 0 mm | - | 149 W/m² | - |
| 1778099096 | 33.33° C | 47% | 1015.9 hPa | 0 mm | - | 178 W/m² | - |
| 1778098792 | 33.33° C | 47% | 1016.2 hPa | 0 mm | - | 142 W/m² | - |
| 1778098491 | 33.89° C | 46% | 1016.2 hPa | 0 mm | - | 166 W/m² | - |
| 1778098187 | 33.89° C | 46% | 1016 hPa | 0 mm | - | 192 W/m² | - |
| 1778097883 | 33.89° C | 47% | 1016.2 hPa | 0 mm | - | 290 W/m² | - |
| 1778097579 | 33.33° C | 47% | 1016.1 hPa | 0 mm | - | 412 W/m² | - |
| 1778097276 | 33.89° C | 47% | 1016.2 hPa | 0 mm | - | 267 W/m² | - |
| 1778096973 | 33.33° C | 46% | 1016.1 hPa | 0 mm | - | 181 W/m² | - |
| 1778096671 | 33.33° C | 47% | 1016.4 hPa | 0 mm | - | 186 W/m² | - |
| 1778096367 | 33.89° C | 45% | 1016.1 hPa | 0 mm | - | 215 W/m² | - |
| 1778096065 | 33.89° C | 47% | 1016.2 hPa | 0 mm | - | 195 W/m² | - |
| 1778095761 | 33.89° C | 47% | 1016.5 hPa | 0 mm | - | 431 W/m² | - |
| 1778095458 | 33.89° C | 47% | 1016.5 hPa | 0 mm | - | 129 W/m² | - |
| 1778095155 | 34.44° C | 46% | 1016.5 hPa | 0 mm | - | 269 W/m² | - |
| 1778094851 | 33.89° C | 46% | 1016.7 hPa | 0 mm | - | 716 W/m² | - |
| 1778094548 | 33.33° C | 47% | 1016.7 hPa | 0 mm | - | 724 W/m² | - |
| 1778094244 | 33.89° C | 47% | 1016.7 hPa | 0 mm | - | 584 W/m² | - |
* Rain latest hour (hover to see other rain measurements)
** Current wind speed in m/s (hover to see current wind gust speed)